Weather History for O'Neill, NE

Change the Weather History Date:

Tuesday, August 13, 2013

  Actual Average Record
Temperature  
Mean Temperature 69 °F -  
Max Temperature 76 °F 85 °F 102 °F (1965)
Min Temperature 62 °F 60 °F 48 °F (1964)
Cooling Degree Days 4    
Growing Degree Days 19 (Base 50)    
Moisture  
Dew Point 57 °F    
Average Humidity 68    
Maximum Humidity 89    
Minimum Humidity 42    
Precipitation  
Precipitation 0.03 in - - ()
Sea Level Pressure  
Sea Level Pressure 30.18 in    
Wind  
Wind Speed 5 mph (ESE)    
Max Wind Speed 12 mph    
Max Gust Speed -    
Visibility 10 miles    
Events      
Averages and records for this station are not official NWS values.
T = Trace of Precipitation, MM = Missing Value Source: NWS Daily Summary

Daily Weather History Graph

Daily Weather History Graph

Search for Another Location

Airport:

Trip Planner

Search our weather history database for the weather conditions in past years. The results will help you decide how hot, cold, wet, or windy it might be!

Date:

Astronomy

Aug. 13, 2013 Rise Set
Actual Time 6:39 AM CDT 8:38 PM CDT
Civil Twilight 6:09 AM CDT 9:08 PM CDT
Nautical Twilight 5:31 AM CDT 9:46 PM CDT
Astronomical Twilight 4:51 AM CDT 10:26 PM CDT
Moon 1:46 PM CDT (8/13) No Moon Set
Length of Visible Light 14h 59m
Length of Day
13h 58m
Waxing Crescent, 42% of the Moon is Illuminated
Aug 13
Waxing Crescent
Aug 14
First Quarter
Aug 20
Full
Aug 28
Last Quarter
Sep 5
New

Hourly Weather History & Observations

Time (CDT) Temp. Dew Point Humidity Pressure Visibility Wind Dir Wind Speed Gust Speed Precip Events Conditions
12:15 AM 68.5 °F 60.8 °F 76% 30.13 in 10.0 mi SE 4.6 mph - N/A   Overcast
12:35 AM 67.8 °F 60.8 °F 78% 30.14 in 10.0 mi ESE 4.6 mph - N/A   Mostly Cloudy
12:55 AM 67.1 °F 60.4 °F 79% 30.14 in 10.0 mi ESE 4.6 mph - N/A   Scattered Clouds
1:15 AM 67.3 °F 60.6 °F 79% 30.14 in 10.0 mi SSE 3.5 mph - N/A   Mostly Cloudy
1:35 AM 66.4 °F 60.3 °F 81% 30.14 in 10.0 mi Calm Calm - N/A   Scattered Clouds
1:55 AM 65.8 °F 59.9 °F 81% 30.14 in 10.0 mi SSE 3.5 mph - N/A   Clear
2:15 AM 65.1 °F 59.9 °F 83% 30.14 in 10.0 mi East 5.8 mph - N/A   Clear
2:35 AM 65.5 °F 60.1 °F 83% 30.14 in 10.0 mi SSE 4.6 mph - N/A   Clear
2:55 AM 64.4 °F 59.9 °F 85% 30.14 in 10.0 mi ESE 3.5 mph - N/A   Clear
3:15 AM 64.8 °F 60.3 °F 85% 30.14 in 10.0 mi ESE 5.8 mph - N/A   Scattered Clouds
3:35 AM 65.3 °F 60.4 °F 84% 30.15 in 10.0 mi ESE 3.5 mph - N/A   Mostly Cloudy
3:55 AM 65.7 °F 60.6 °F 84% 30.14 in 10.0 mi SE 5.8 mph - N/A   Scattered Clouds
4:15 AM 65.5 °F 60.4 °F 84% 30.15 in 10.0 mi ESE 4.6 mph - N/A   Clear
4:35 AM 65.3 °F 60.4 °F 84% 30.14 in 10.0 mi SE 3.5 mph - N/A   Clear
4:55 AM 64.6 °F 60.3 °F 86% 30.15 in 7.0 mi ESE 3.5 mph - N/A   Clear
5:15 AM 64.6 °F 60.4 °F 86% 30.15 in 7.0 mi Calm Calm - N/A   Clear
5:35 AM 64.4 °F 60.3 °F 86% 30.15 in 7.0 mi Calm Calm - N/A   Scattered Clouds
5:55 AM 63.5 °F 59.9 °F 88% 30.15 in 5.0 mi ENE 3.5 mph - N/A   Clear
6:15 AM 62.6 °F 59.4 °F 89% 30.15 in 5.0 mi East 3.5 mph - N/A   Clear
6:35 AM 64.4 °F 59.0 °F 83% 30.15 in 10.0 mi SE 4.6 mph - N/A   Clear
6:55 AM 63.9 °F 59.0 °F 84% 30.16 in 10.0 mi SE 3.5 mph - N/A   Clear
7:15 AM 63.7 °F 59.0 °F 85% 30.17 in 10.0 mi ESE 3.5 mph - N/A   Mostly Cloudy
7:35 AM 64.0 °F 59.0 °F 84% 30.17 in 10.0 mi East 3.5 mph - N/A   Overcast
7:55 AM 64.4 °F 58.8 °F 82% 30.18 in 10.0 mi SSE 3.5 mph - N/A   Overcast
8:15 AM 64.4 °F 59.0 °F 83% 30.18 in 10.0 mi East 3.5 mph - N/A   Overcast
8:35 AM 64.4 °F 58.8 °F 82% 30.18 in 10.0 mi SE 3.5 mph - N/A   Scattered Clouds
8:55 AM 64.6 °F 59.0 °F 82% 30.19 in 10.0 mi ESE 3.5 mph - N/A   Clear
9:15 AM 64.9 °F 59.0 °F 81% 30.19 in 10.0 mi East 4.6 mph - N/A   Mostly Cloudy
9:35 AM 65.7 °F 57.9 °F 76% 30.20 in 10.0 mi SE 4.6 mph - N/A   Overcast
9:55 AM 66.0 °F 58.1 °F 76% 30.21 in 10.0 mi ESE 4.6 mph - N/A   Overcast
10:15 AM 66.4 °F 58.1 °F 75% 30.22 in 10.0 mi SSE 4.6 mph - N/A   Overcast
10:35 AM 66.9 °F 58.5 °F 74% 30.22 in 10.0 mi SSE 4.6 mph - N/A   Overcast
10:55 AM 68.0 °F 58.3 °F 71% 30.22 in 10.0 mi SSE 4.6 mph - N/A   Overcast
11:15 AM 69.8 °F 57.6 °F 65% 30.23 in 10.0 mi SSE 4.6 mph - N/A   Overcast
11:35 AM 71.6 °F 57.4 °F 61% 30.23 in 10.0 mi ESE 6.9 mph - N/A   Mostly Cloudy
11:55 AM 71.2 °F 54.9 °F 56% 30.22 in 10.0 mi ESE 6.9 mph - N/A   Overcast
12:15 PM 71.8 °F 54.7 °F 55% 30.23 in 10.0 mi SE 4.6 mph - N/A   Overcast
12:35 PM 72.7 °F 53.4 °F 51% 30.22 in 10.0 mi ESE 6.9 mph - N/A   Mostly Cloudy
12:55 PM 72.7 °F 54.9 °F 53% 30.21 in 10.0 mi SE 8.1 mph - N/A   Scattered Clouds
1:15 PM 73.4 °F 53.6 °F 50% 30.21 in 10.0 mi ESE 11.5 mph - N/A   Scattered Clouds
1:35 PM 73.0 °F 52.9 °F 49% 30.21 in 10.0 mi ESE 9.2 mph - N/A   Clear
1:55 PM 74.1 °F 55.2 °F 52% 30.20 in 10.0 mi ESE 9.2 mph - N/A   Clear
2:15 PM 74.5 °F 54.5 °F 50% 30.21 in 10.0 mi SE 8.1 mph - N/A   Clear
2:35 PM 74.7 °F 53.8 °F 48% 30.20 in 10.0 mi ESE 6.9 mph - N/A   Clear
2:55 PM 76.6 °F 52.2 °F 42% 30.19 in 10.0 mi ESE 8.1 mph - N/A   Scattered Clouds
3:15 PM 75.2 °F 55.0 °F 49% 30.19 in 10.0 mi East 6.9 mph - N/A   Scattered Clouds
3:35 PM 75.6 °F 55.6 °F 50% 30.19 in 10.0 mi East 5.8 mph - N/A   Clear
3:55 PM 75.4 °F 53.4 °F 46% 30.19 in 10.0 mi ENE 10.4 mph - N/A   Clear
4:15 PM 75.6 °F 52.5 °F 45% 30.18 in 10.0 mi East 10.4 mph - N/A   Clear
4:35 PM 75.6 °F 51.1 °F 42% 30.18 in 10.0 mi ESE 9.2 mph - N/A   Clear
4:55 PM 75.7 °F 51.3 °F 42% 30.17 in 10.0 mi ESE 6.9 mph - N/A   Clear
5:15 PM 75.4 °F 53.8 °F 47% 30.17 in 10.0 mi ESE 8.1 mph - N/A   Clear
5:35 PM 75.4 °F 55.2 °F 49% 30.16 in 10.0 mi East 6.9 mph - N/A   Clear
5:55 PM 75.6 °F 55.0 °F 49% 30.16 in 10.0 mi ESE 6.9 mph - N/A   Clear
6:55 PM 74.3 °F 55.8 °F 52% 30.16 in 10.0 mi ESE 8.1 mph - 0.03 in   Clear
7:15 PM 73.8 °F 54.7 °F 51% 30.16 in 10.0 mi SE 6.9 mph - N/A   Clear
7:35 PM 72.9 °F 55.8 °F 55% 30.17 in 7.0 mi SE 5.8 mph - N/A   Clear
7:55 PM 71.6 °F 56.5 °F 59% 30.17 in 10.0 mi ESE 5.8 mph - N/A   Clear
8:15 PM 69.8 °F 56.3 °F 62% 30.16 in 10.0 mi SE 3.5 mph - N/A   Clear
8:35 PM 68.2 °F 56.3 °F 66% 30.16 in 10.0 mi ESE 4.6 mph - N/A   Clear
8:55 PM 67.3 °F 55.4 °F 66% 30.16 in 10.0 mi SE 4.6 mph - N/A   Clear
9:15 PM 67.5 °F 55.8 °F 66% 30.16 in 10.0 mi SE 3.5 mph - N/A   Clear
9:35 PM 66.4 °F 55.4 °F 68% 30.17 in 10.0 mi SE 4.6 mph - N/A   Clear
9:55 PM 65.8 °F 55.4 °F 69% 30.17 in 10.0 mi SSE 4.6 mph - N/A   Clear
10:15 PM 65.3 °F 54.9 °F 69% 30.18 in 10.0 mi SSE 3.5 mph - N/A   Clear
10:35 PM 64.6 °F 54.1 °F 69% 30.18 in 10.0 mi SSE 3.5 mph - N/A   Clear
10:55 PM 64.4 °F 54.0 °F 69% 30.19 in 10.0 mi Calm Calm - N/A   Clear
11:15 PM 63.7 °F 54.1 °F 71% 30.19 in 10.0 mi Calm Calm - N/A   Clear
11:35 PM 62.6 °F 54.5 °F 75% 30.19 in 10.0 mi SE 4.6 mph - N/A   Clear
11:55 PM 62.1 °F 54.5 °F 76% 30.19 in 10.0 mi SE 4.6 mph - N/A   Clear